<?xml version="1.0" encoding="UTF-8" standalone="no" ?>
<gpx xmlns="http://www.topografix.com/GPX/1/1" xmlns:xsi="http://www.w3.org/2001/XMLSchema-instance" xsi:schemaLocation="http://www.topografix.com/GPX/1/1 http://www.topografix.com/GPX/1/1/gpx.xsd" version="1.1" creator="VisuGPX - https://www.visugpx.com">
  <metadata>
    <name>Parcours VTT FFC Saillans</name>
  </metadata>
  <trk>
    <name><![CDATA[VTT  N°3 bleu - Col de Sauzet -15 km - déniv 500 m]]></name>
    <extensions>
      <line xmlns="http://www.topografix.com/GPX/gpx_style/0/2">
        <color>0922fb</color>
        <width>4</width>
      </line>
    </extensions>
    <trkseg>
      <trkpt lat="44.69837" lon="5.19908">
        <ele>290</ele>
        <time>2022-11-17T10:03:28Z</time>
      </trkpt>
      <trkpt lat="44.69898" lon="5.19822">
        <ele>291</ele>
        <time>2022-11-17T10:03:28Z</time>
      </trkpt>
      <trkpt lat="44.6992" lon="5.19805">
        <ele>291</ele>
        <time>2022-11-17T10:03:28Z</time>
      </trkpt>
      <trkpt lat="44.69969" lon="5.19786">
        <ele>289</ele>
        <time>2022-11-17T10:03:28Z</time>
      </trkpt>
      <trkpt lat="44.70053" lon="5.19787">
        <ele>292</ele>
        <time>2022-11-17T10:03:28Z</time>
      </trkpt>
      <trkpt lat="44.70062" lon="5.19783">
        <ele>292</ele>
        <time>2022-11-17T10:03:28Z</time>
      </trkpt>
      <trkpt lat="44.70139" lon="5.19779">
        <ele>294</ele>
        <time>2022-11-17T10:03:28Z</time>
      </trkpt>
      <trkpt lat="44.70204" lon="5.19801">
        <ele>295</ele>
        <time>2022-11-17T10:03:28Z</time>
      </trkpt>
      <trkpt lat="44.70257" lon="5.19788">
        <ele>296</ele>
        <time>2022-11-17T10:03:28Z</time>
      </trkpt>
      <trkpt lat="44.70436" lon="5.19819">
        <ele>307</ele>
        <time>2022-11-17T10:03:28Z</time>
      </trkpt>
      <trkpt lat="44.70452" lon="5.19813">
        <ele>308</ele>
        <time>2022-11-17T10:03:28Z</time>
      </trkpt>
      <trkpt lat="44.70466" lon="5.19802">
        <ele>310</ele>
        <time>2022-11-17T10:03:28Z</time>
      </trkpt>
      <trkpt lat="44.70501" lon="5.19766">
        <ele>313</ele>
        <time>2022-11-17T10:03:28Z</time>
      </trkpt>
      <trkpt lat="44.70547" lon="5.19705">
        <ele>321</ele>
        <time>2022-11-17T10:03:28Z</time>
      </trkpt>
      <trkpt lat="44.70562" lon="5.19675">
        <ele>324</ele>
        <time>2022-11-17T10:03:28Z</time>
      </trkpt>
      <trkpt lat="44.7057" lon="5.19668">
        <ele>325</ele>
        <time>2022-11-17T10:03:28Z</time>
      </trkpt>
      <trkpt lat="44.70579" lon="5.19663">
        <ele>327</ele>
        <time>2022-11-17T10:03:28Z</time>
      </trkpt>
      <trkpt lat="44.70633" lon="5.19661">
        <ele>334</ele>
        <time>2022-11-17T10:03:28Z</time>
      </trkpt>
      <trkpt lat="44.70641" lon="5.19666">
        <ele>335</ele>
        <time>2022-11-17T10:03:28Z</time>
      </trkpt>
      <trkpt lat="44.70692" lon="5.19678">
        <ele>339</ele>
        <time>2022-11-17T10:03:28Z</time>
      </trkpt>
      <trkpt lat="44.70768" lon="5.19712">
        <ele>336</ele>
        <time>2022-11-17T10:03:28Z</time>
      </trkpt>
      <trkpt lat="44.70795" lon="5.19715">
        <ele>334</ele>
        <time>2022-11-17T10:03:28Z</time>
      </trkpt>
      <trkpt lat="44.70845" lon="5.19703">
        <ele>330</ele>
        <time>2022-11-17T10:03:28Z</time>
      </trkpt>
      <trkpt lat="44.70858" lon="5.19694">
        <ele>328</ele>
        <time>2022-11-17T10:03:28Z</time>
      </trkpt>
      <trkpt lat="44.70898" lon="5.19684">
        <ele>324</ele>
        <time>2022-11-17T10:03:28Z</time>
      </trkpt>
      <trkpt lat="44.70917" lon="5.19664">
        <ele>322</ele>
        <time>2022-11-17T10:03:28Z</time>
      </trkpt>
      <trkpt lat="44.70923" lon="5.19651">
        <ele>321</ele>
        <time>2022-11-17T10:03:28Z</time>
      </trkpt>
      <trkpt lat="44.70929" lon="5.19643">
        <ele>321</ele>
        <time>2022-11-17T10:03:28Z</time>
      </trkpt>
      <trkpt lat="44.70955" lon="5.19632">
        <ele>319</ele>
        <time>2022-11-17T10:03:28Z</time>
      </trkpt>
      <trkpt lat="44.70959" lon="5.19622">
        <ele>318</ele>
        <time>2022-11-17T10:03:28Z</time>
      </trkpt>
      <trkpt lat="44.70959" lon="5.19609">
        <ele>318</ele>
        <time>2022-11-17T10:03:28Z</time>
      </trkpt>
      <trkpt lat="44.70955" lon="5.196">
        <ele>319</ele>
        <time>2022-11-17T10:03:28Z</time>
      </trkpt>
      <trkpt lat="44.70943" lon="5.19584">
        <ele>320</ele>
        <time>2022-11-17T10:03:28Z</time>
      </trkpt>
      <trkpt lat="44.7094" lon="5.19572">
        <ele>321</ele>
        <time>2022-11-17T10:03:28Z</time>
      </trkpt>
      <trkpt lat="44.70944" lon="5.19558">
        <ele>322</ele>
        <time>2022-11-17T10:03:28Z</time>
      </trkpt>
      <trkpt lat="44.70972" lon="5.19497">
        <ele>325</ele>
        <time>2022-11-17T10:03:28Z</time>
      </trkpt>
      <trkpt lat="44.70974" lon="5.19487">
        <ele>325</ele>
        <time>2022-11-17T10:03:28Z</time>
      </trkpt>
      <trkpt lat="44.70981" lon="5.19481">
        <ele>325</ele>
        <time>2022-11-17T10:03:28Z</time>
      </trkpt>
      <trkpt lat="44.70992" lon="5.19458">
        <ele>326</ele>
        <time>2022-11-17T10:03:28Z</time>
      </trkpt>
      <trkpt lat="44.70999" lon="5.19448">
        <ele>326</ele>
        <time>2022-11-17T10:03:28Z</time>
      </trkpt>
      <trkpt lat="44.71008" lon="5.19421">
        <ele>326</ele>
        <time>2022-11-17T10:03:28Z</time>
      </trkpt>
      <trkpt lat="44.71012" lon="5.194">
        <ele>326</ele>
        <time>2022-11-17T10:03:28Z</time>
      </trkpt>
      <trkpt lat="44.71035" lon="5.19343">
        <ele>327</ele>
        <time>2022-11-17T10:03:28Z</time>
      </trkpt>
      <trkpt lat="44.71051" lon="5.19277">
        <ele>328</ele>
        <time>2022-11-17T10:03:28Z</time>
      </trkpt>
      <trkpt lat="44.71092" lon="5.19227">
        <ele>329</ele>
        <time>2022-11-17T10:03:28Z</time>
      </trkpt>
      <trkpt lat="44.71119" lon="5.19213">
        <ele>329</ele>
        <time>2022-11-17T10:03:28Z</time>
      </trkpt>
      <trkpt lat="44.71128" lon="5.19212">
        <ele>330</ele>
        <time>2022-11-17T10:03:28Z</time>
      </trkpt>
      <trkpt lat="44.71135" lon="5.19216">
        <ele>330</ele>
        <time>2022-11-17T10:03:28Z</time>
      </trkpt>
      <trkpt lat="44.71169" lon="5.19218">
        <ele>333</ele>
        <time>2022-11-17T10:03:28Z</time>
      </trkpt>
      <trkpt lat="44.71178" lon="5.19216">
        <ele>333</ele>
        <time>2022-11-17T10:03:28Z</time>
      </trkpt>
      <trkpt lat="44.71265" lon="5.19168">
        <ele>334</ele>
        <time>2022-11-17T10:03:28Z</time>
      </trkpt>
      <trkpt lat="44.71273" lon="5.19168">
        <ele>334</ele>
        <time>2022-11-17T10:03:28Z</time>
      </trkpt>
      <trkpt lat="44.71282" lon="5.19162">
        <ele>334</ele>
        <time>2022-11-17T10:03:28Z</time>
      </trkpt>
      <trkpt lat="44.71306" lon="5.1915">
        <ele>335</ele>
        <time>2022-11-17T10:03:28Z</time>
      </trkpt>
      <trkpt lat="44.71323" lon="5.19163">
        <ele>336</ele>
        <time>2022-11-17T10:03:28Z</time>
      </trkpt>
      <trkpt lat="44.71341" lon="5.19169">
        <ele>337</ele>
        <time>2022-11-17T10:03:28Z</time>
      </trkpt>
      <trkpt lat="44.71347" lon="5.19164">
        <ele>338</ele>
        <time>2022-11-17T10:03:28Z</time>
      </trkpt>
      <trkpt lat="44.71365" lon="5.19157">
        <ele>340</ele>
        <time>2022-11-17T10:03:28Z</time>
      </trkpt>
      <trkpt lat="44.71368" lon="5.19147">
        <ele>340</ele>
        <time>2022-11-17T10:03:28Z</time>
      </trkpt>
      <trkpt lat="44.71368" lon="5.19136">
        <ele>340</ele>
        <time>2022-11-17T10:03:28Z</time>
      </trkpt>
      <trkpt lat="44.71426" lon="5.1909">
        <ele>339</ele>
        <time>2022-11-17T10:03:28Z</time>
      </trkpt>
      <trkpt lat="44.71459" lon="5.19083">
        <ele>341</ele>
        <time>2022-11-17T10:03:28Z</time>
      </trkpt>
      <trkpt lat="44.71482" lon="5.19082">
        <ele>343</ele>
        <time>2022-11-17T10:03:28Z</time>
      </trkpt>
      <trkpt lat="44.71496" lon="5.19095">
        <ele>345</ele>
        <time>2022-11-17T10:03:28Z</time>
      </trkpt>
      <trkpt lat="44.7148" lon="5.19096">
        <ele>348</ele>
        <time>2022-11-17T10:03:28Z</time>
      </trkpt>
      <trkpt lat="44.71466" lon="5.19108">
        <ele>350</ele>
        <time>2022-11-17T10:03:28Z</time>
      </trkpt>
      <trkpt lat="44.71491" lon="5.19104">
        <ele>352</ele>
        <time>2022-11-17T10:03:28Z</time>
      </trkpt>
      <trkpt lat="44.71507" lon="5.19112">
        <ele>353</ele>
        <time>2022-11-17T10:03:28Z</time>
      </trkpt>
      <trkpt lat="44.71526" lon="5.19129">
        <ele>355</ele>
        <time>2022-11-17T10:03:28Z</time>
      </trkpt>
      <trkpt lat="44.71543" lon="5.19134">
        <ele>357</ele>
        <time>2022-11-17T10:03:28Z</time>
      </trkpt>
      <trkpt lat="44.71622" lon="5.1915">
        <ele>365</ele>
        <time>2022-11-17T10:03:28Z</time>
      </trkpt>
      <trkpt lat="44.71651" lon="5.19166">
        <ele>368</ele>
        <time>2022-11-17T10:03:28Z</time>
      </trkpt>
      <trkpt lat="44.71676" lon="5.19194">
        <ele>370</ele>
        <time>2022-11-17T10:03:28Z</time>
      </trkpt>
      <trkpt lat="44.71692" lon="5.19193">
        <ele>372</ele>
        <time>2022-11-17T10:03:28Z</time>
      </trkpt>
      <trkpt lat="44.71698" lon="5.19201">
        <ele>373</ele>
        <time>2022-11-17T10:03:28Z</time>
      </trkpt>
      <trkpt lat="44.71696" lon="5.19212">
        <ele>373</ele>
        <time>2022-11-17T10:03:28Z</time>
      </trkpt>
      <trkpt lat="44.71677" lon="5.19212">
        <ele>375</ele>
        <time>2022-11-17T10:03:28Z</time>
      </trkpt>
      <trkpt lat="44.71624" lon="5.19196">
        <ele>378</ele>
        <time>2022-11-17T10:03:28Z</time>
      </trkpt>
      <trkpt lat="44.71615" lon="5.19199">
        <ele>379</ele>
        <time>2022-11-17T10:03:28Z</time>
      </trkpt>
      <trkpt lat="44.71573" lon="5.19227">
        <ele>383</ele>
        <time>2022-11-17T10:03:28Z</time>
      </trkpt>
      <trkpt lat="44.71562" lon="5.19245">
        <ele>384</ele>
        <time>2022-11-17T10:03:28Z</time>
      </trkpt>
      <trkpt lat="44.71553" lon="5.19251">
        <ele>385</ele>
        <time>2022-11-17T10:03:28Z</time>
      </trkpt>
      <trkpt lat="44.71536" lon="5.19252">
        <ele>386</ele>
        <time>2022-11-17T10:03:28Z</time>
      </trkpt>
      <trkpt lat="44.71492" lon="5.19245">
        <ele>390</ele>
        <time>2022-11-17T10:03:28Z</time>
      </trkpt>
      <trkpt lat="44.71483" lon="5.19248">
        <ele>391</ele>
        <time>2022-11-17T10:03:28Z</time>
      </trkpt>
      <trkpt lat="44.7146" lon="5.19266">
        <ele>392</ele>
        <time>2022-11-17T10:03:28Z</time>
      </trkpt>
      <trkpt lat="44.71426" lon="5.19304">
        <ele>396</ele>
        <time>2022-11-17T10:03:28Z</time>
      </trkpt>
      <trkpt lat="44.71418" lon="5.19309">
        <ele>397</ele>
        <time>2022-11-17T10:03:28Z</time>
      </trkpt>
      <trkpt lat="44.71383" lon="5.19311">
        <ele>400</ele>
        <time>2022-11-17T10:03:28Z</time>
      </trkpt>
      <trkpt lat="44.71218" lon="5.19391">
        <ele>411</ele>
        <time>2022-11-17T10:03:28Z</time>
      </trkpt>
      <trkpt lat="44.71184" lon="5.19417">
        <ele>413</ele>
        <time>2022-11-17T10:03:28Z</time>
      </trkpt>
      <trkpt lat="44.71177" lon="5.19426">
        <ele>413</ele>
        <time>2022-11-17T10:03:28Z</time>
      </trkpt>
      <trkpt lat="44.71175" lon="5.19438">
        <ele>413</ele>
        <time>2022-11-17T10:03:28Z</time>
      </trkpt>
      <trkpt lat="44.7118" lon="5.19464">
        <ele>414</ele>
        <time>2022-11-17T10:03:28Z</time>
      </trkpt>
      <trkpt lat="44.71224" lon="5.19583">
        <ele>417</ele>
        <time>2022-11-17T10:03:28Z</time>
      </trkpt>
      <trkpt lat="44.7123" lon="5.19588">
        <ele>418</ele>
        <time>2022-11-17T10:03:28Z</time>
      </trkpt>
      <trkpt lat="44.71272" lon="5.19582">
        <ele>421</ele>
        <time>2022-11-17T10:03:28Z</time>
      </trkpt>
      <trkpt lat="44.71308" lon="5.19591">
        <ele>424</ele>
        <time>2022-11-17T10:03:28Z</time>
      </trkpt>
      <trkpt lat="44.71323" lon="5.19601">
        <ele>426</ele>
        <time>2022-11-17T10:03:28Z</time>
      </trkpt>
      <trkpt lat="44.71329" lon="5.19609">
        <ele>427</ele>
        <time>2022-11-17T10:03:28Z</time>
      </trkpt>
      <trkpt lat="44.71358" lon="5.1967">
        <ele>432</ele>
        <time>2022-11-17T10:03:28Z</time>
      </trkpt>
      <trkpt lat="44.71398" lon="5.19702">
        <ele>435</ele>
        <time>2022-11-17T10:03:28Z</time>
      </trkpt>
      <trkpt lat="44.7146" lon="5.19712">
        <ele>436</ele>
        <time>2022-11-17T10:03:28Z</time>
      </trkpt>
      <trkpt lat="44.71468" lon="5.19708">
        <ele>436</ele>
        <time>2022-11-17T10:03:28Z</time>
      </trkpt>
      <trkpt lat="44.71497" lon="5.19679">
        <ele>436</ele>
        <time>2022-11-17T10:03:28Z</time>
      </trkpt>
      <trkpt lat="44.7158" lon="5.19644">
        <ele>439</ele>
        <time>2022-11-17T10:03:28Z</time>
      </trkpt>
      <trkpt lat="44.7159" lon="5.19643">
        <ele>439</ele>
        <time>2022-11-17T10:03:28Z</time>
      </trkpt>
      <trkpt lat="44.71617" lon="5.19652">
        <ele>439</ele>
        <time>2022-11-17T10:03:28Z</time>
      </trkpt>
      <trkpt lat="44.71627" lon="5.19652">
        <ele>439</ele>
        <time>2022-11-17T10:03:28Z</time>
      </trkpt>
      <trkpt lat="44.71636" lon="5.19648">
        <ele>439</ele>
        <time>2022-11-17T10:03:28Z</time>
      </trkpt>
      <trkpt lat="44.71676" lon="5.19613">
        <ele>435</ele>
        <time>2022-11-17T10:03:28Z</time>
      </trkpt>
      <trkpt lat="44.71696" lon="5.19605">
        <ele>434</ele>
        <time>2022-11-17T10:03:28Z</time>
      </trkpt>
      <trkpt lat="44.71703" lon="5.19599">
        <ele>433</ele>
        <time>2022-11-17T10:03:28Z</time>
      </trkpt>
      <trkpt lat="44.71786" lon="5.19565">
        <ele>426</ele>
        <time>2022-11-17T10:03:28Z</time>
      </trkpt>
      <trkpt lat="44.71854" lon="5.19554">
        <ele>420</ele>
        <time>2022-11-17T10:03:28Z</time>
      </trkpt>
      <trkpt lat="44.71895" lon="5.19538">
        <ele>418</ele>
        <time>2022-11-17T10:03:28Z</time>
      </trkpt>
      <trkpt lat="44.71905" lon="5.1954">
        <ele>417</ele>
        <time>2022-11-17T10:03:28Z</time>
      </trkpt>
      <trkpt lat="44.71933" lon="5.19562">
        <ele>415</ele>
        <time>2022-11-17T10:03:28Z</time>
      </trkpt>
      <trkpt lat="44.71944" lon="5.19566">
        <ele>414</ele>
        <time>2022-11-17T10:03:28Z</time>
      </trkpt>
      <trkpt lat="44.7196" lon="5.19566">
        <ele>412</ele>
        <time>2022-11-17T10:03:28Z</time>
      </trkpt>
      <trkpt lat="44.71982" lon="5.19554">
        <ele>410</ele>
        <time>2022-11-17T10:03:28Z</time>
      </trkpt>
      <trkpt lat="44.72013" lon="5.19523">
        <ele>407</ele>
        <time>2022-11-17T10:03:28Z</time>
      </trkpt>
      <trkpt lat="44.72101" lon="5.19521">
        <ele>403</ele>
        <time>2022-11-17T10:03:28Z</time>
      </trkpt>
      <trkpt lat="44.72141" lon="5.19512">
        <ele>401</ele>
        <time>2022-11-17T10:03:28Z</time>
      </trkpt>
      <trkpt lat="44.72152" lon="5.19531">
        <ele>400</ele>
        <time>2022-11-17T10:03:28Z</time>
      </trkpt>
      <trkpt lat="44.72161" lon="5.19528">
        <ele>400</ele>
        <time>2022-11-17T10:03:28Z</time>
      </trkpt>
      <trkpt lat="44.72174" lon="5.19515">
        <ele>399</ele>
        <time>2022-11-17T10:03:28Z</time>
      </trkpt>
      <trkpt lat="44.72184" lon="5.19498">
        <ele>399</ele>
        <time>2022-11-17T10:03:28Z</time>
      </trkpt>
      <trkpt lat="44.72187" lon="5.19488">
        <ele>399</ele>
        <time>2022-11-17T10:03:28Z</time>
      </trkpt>
      <trkpt lat="44.72193" lon="5.19483">
        <ele>399</ele>
        <time>2022-11-17T10:03:28Z</time>
      </trkpt>
      <trkpt lat="44.72199" lon="5.19473">
        <ele>399</ele>
        <time>2022-11-17T10:03:28Z</time>
      </trkpt>
      <trkpt lat="44.72211" lon="5.1946">
        <ele>399</ele>
        <time>2022-11-17T10:03:28Z</time>
      </trkpt>
      <trkpt lat="44.72228" lon="5.1945">
        <ele>399</ele>
        <time>2022-11-17T10:03:28Z</time>
      </trkpt>
      <trkpt lat="44.72239" lon="5.19436">
        <ele>398</ele>
        <time>2022-11-17T10:03:28Z</time>
      </trkpt>
      <trkpt lat="44.72248" lon="5.19438">
        <ele>398</ele>
        <time>2022-11-17T10:03:28Z</time>
      </trkpt>
      <trkpt lat="44.72257" lon="5.19436">
        <ele>398</ele>
        <time>2022-11-17T10:03:28Z</time>
      </trkpt>
      <trkpt lat="44.72263" lon="5.19431">
        <ele>398</ele>
        <time>2022-11-17T10:03:29Z</time>
      </trkpt>
      <trkpt lat="44.7227" lon="5.19432">
        <ele>398</ele>
        <time>2022-11-17T10:03:29Z</time>
      </trkpt>
      <trkpt lat="44.72278" lon="5.1943">
        <ele>398</ele>
        <time>2022-11-17T10:03:29Z</time>
      </trkpt>
      <trkpt lat="44.72285" lon="5.19432">
        <ele>398</ele>
        <time>2022-11-17T10:03:29Z</time>
      </trkpt>
      <trkpt lat="44.72323" lon="5.1939">
        <ele>398</ele>
        <time>2022-11-17T10:03:29Z</time>
      </trkpt>
      <trkpt lat="44.72327" lon="5.19379">
        <ele>398</ele>
        <time>2022-11-17T10:03:29Z</time>
      </trkpt>
      <trkpt lat="44.72326" lon="5.19366">
        <ele>398</ele>
        <time>2022-11-17T10:03:29Z</time>
      </trkpt>
      <trkpt lat="44.7233" lon="5.19355">
        <ele>398</ele>
        <time>2022-11-17T10:03:29Z</time>
      </trkpt>
      <trkpt lat="44.72344" lon="5.19345">
        <ele>398</ele>
        <time>2022-11-17T10:03:29Z</time>
      </trkpt>
      <trkpt lat="44.7236" lon="5.19324">
        <ele>398</ele>
        <time>2022-11-17T10:03:29Z</time>
      </trkpt>
      <trkpt lat="44.72381" lon="5.19307">
        <ele>398</ele>
        <time>2022-11-17T10:03:29Z</time>
      </trkpt>
      <trkpt lat="44.72386" lon="5.19299">
        <ele>398</ele>
        <time>2022-11-17T10:03:29Z</time>
      </trkpt>
      <trkpt lat="44.72383" lon="5.1927">
        <ele>398</ele>
        <time>2022-11-17T10:03:29Z</time>
      </trkpt>
      <trkpt lat="44.7238" lon="5.19261">
        <ele>399</ele>
        <time>2022-11-17T10:03:29Z</time>
      </trkpt>
      <trkpt lat="44.72379" lon="5.19251">
        <ele>399</ele>
        <time>2022-11-17T10:03:29Z</time>
      </trkpt>
      <trkpt lat="44.72385" lon="5.19231">
        <ele>400</ele>
        <time>2022-11-17T10:03:29Z</time>
      </trkpt>
      <trkpt lat="44.72386" lon="5.1922">
        <ele>401</ele>
        <time>2022-11-17T10:03:29Z</time>
      </trkpt>
      <trkpt lat="44.72385" lon="5.1921">
        <ele>402</ele>
        <time>2022-11-17T10:03:29Z</time>
      </trkpt>
      <trkpt lat="44.72387" lon="5.192">
        <ele>403</ele>
        <time>2022-11-17T10:03:29Z</time>
      </trkpt>
      <trkpt lat="44.72388" lon="5.19188">
        <ele>404</ele>
        <time>2022-11-17T10:03:29Z</time>
      </trkpt>
      <trkpt lat="44.72385" lon="5.19176">
        <ele>406</ele>
        <time>2022-11-17T10:03:29Z</time>
      </trkpt>
      <trkpt lat="44.72385" lon="5.19165">
        <ele>407</ele>
        <time>2022-11-17T10:03:29Z</time>
      </trkpt>
      <trkpt lat="44.72389" lon="5.19156">
        <ele>408</ele>
        <time>2022-11-17T10:03:29Z</time>
      </trkpt>
      <trkpt lat="44.72389" lon="5.19146">
        <ele>410</ele>
        <time>2022-11-17T10:03:29Z</time>
      </trkpt>
      <trkpt lat="44.7239" lon="5.19136">
        <ele>411</ele>
        <time>2022-11-17T10:03:29Z</time>
      </trkpt>
      <trkpt lat="44.72398" lon="5.19136">
        <ele>413</ele>
        <time>2022-11-17T10:03:29Z</time>
      </trkpt>
      <trkpt lat="44.72404" lon="5.19129">
        <ele>415</ele>
        <time>2022-11-17T10:03:29Z</time>
      </trkpt>
      <trkpt lat="44.72414" lon="5.19094">
        <ele>419</ele>
        <time>2022-11-17T10:03:29Z</time>
      </trkpt>
      <trkpt lat="44.72386" lon="5.19001">
        <ele>419</ele>
        <time>2022-11-17T10:03:29Z</time>
      </trkpt>
      <trkpt lat="44.72375" lon="5.18982">
        <ele>419</ele>
        <time>2022-11-17T10:03:29Z</time>
      </trkpt>
      <trkpt lat="44.72373" lon="5.1897">
        <ele>419</ele>
        <time>2022-11-17T10:03:29Z</time>
      </trkpt>
      <trkpt lat="44.72383" lon="5.18949">
        <ele>419</ele>
        <time>2022-11-17T10:03:29Z</time>
      </trkpt>
      <trkpt lat="44.72386" lon="5.18936">
        <ele>419</ele>
        <time>2022-11-17T10:03:29Z</time>
      </trkpt>
      <trkpt lat="44.72386" lon="5.18923">
        <ele>420</ele>
        <time>2022-11-17T10:03:29Z</time>
      </trkpt>
      <trkpt lat="44.72379" lon="5.18914">
        <ele>421</ele>
        <time>2022-11-17T10:03:29Z</time>
      </trkpt>
      <trkpt lat="44.7237" lon="5.18911">
        <ele>422</ele>
        <time>2022-11-17T10:03:29Z</time>
      </trkpt>
      <trkpt lat="44.72345" lon="5.18928">
        <ele>424</ele>
        <time>2022-11-17T10:03:29Z</time>
      </trkpt>
      <trkpt lat="44.72334" lon="5.18945">
        <ele>425</ele>
        <time>2022-11-17T10:03:29Z</time>
      </trkpt>
      <trkpt lat="44.72304" lon="5.19087">
        <ele>433</ele>
        <time>2022-11-17T10:03:29Z</time>
      </trkpt>
      <trkpt lat="44.72297" lon="5.19094">
        <ele>433</ele>
        <time>2022-11-17T10:03:29Z</time>
      </trkpt>
      <trkpt lat="44.72291" lon="5.19088">
        <ele>434</ele>
        <time>2022-11-17T10:03:29Z</time>
      </trkpt>
      <trkpt lat="44.72291" lon="5.19076">
        <ele>435</ele>
        <time>2022-11-17T10:03:29Z</time>
      </trkpt>
      <trkpt lat="44.723" lon="5.19055">
        <ele>436</ele>
        <time>2022-11-17T10:03:29Z</time>
      </trkpt>
      <trkpt lat="44.72306" lon="5.18968">
        <ele>438</ele>
        <time>2022-11-17T10:03:29Z</time>
      </trkpt>
      <trkpt lat="44.72305" lon="5.18957">
        <ele>438</ele>
        <time>2022-11-17T10:03:29Z</time>
      </trkpt>
      <trkpt lat="44.72308" lon="5.18921">
        <ele>439</ele>
        <time>2022-11-17T10:03:29Z</time>
      </trkpt>
      <trkpt lat="44.72312" lon="5.18909">
        <ele>440</ele>
        <time>2022-11-17T10:03:29Z</time>
      </trkpt>
      <trkpt lat="44.72375" lon="5.18816">
        <ele>446</ele>
        <time>2022-11-17T10:03:29Z</time>
      </trkpt>
      <trkpt lat="44.72398" lon="5.18792">
        <ele>448</ele>
        <time>2022-11-17T10:03:29Z</time>
      </trkpt>
      <trkpt lat="44.72427" lon="5.18748">
        <ele>451</ele>
        <time>2022-11-17T10:03:29Z</time>
      </trkpt>
      <trkpt lat="44.72429" lon="5.18736">
        <ele>452</ele>
        <time>2022-11-17T10:03:29Z</time>
      </trkpt>
      <trkpt lat="44.72427" lon="5.18723">
        <ele>453</ele>
        <time>2022-11-17T10:03:29Z</time>
      </trkpt>
      <trkpt lat="44.72438" lon="5.18706">
        <ele>454</ele>
        <time>2022-11-17T10:03:29Z</time>
      </trkpt>
      <trkpt lat="44.7245" lon="5.18673">
        <ele>456</ele>
        <time>2022-11-17T10:03:29Z</time>
      </trkpt>
      <trkpt lat="44.72497" lon="5.18592">
        <ele>462</ele>
        <time>2022-11-17T10:03:29Z</time>
      </trkpt>
      <trkpt lat="44.72504" lon="5.18585">
        <ele>463</ele>
        <time>2022-11-17T10:03:29Z</time>
      </trkpt>
      <trkpt lat="44.72513" lon="5.18581">
        <ele>464</ele>
        <time>2022-11-17T10:03:29Z</time>
      </trkpt>
      <trkpt lat="44.72521" lon="5.1858">
        <ele>465</ele>
        <time>2022-11-17T10:03:29Z</time>
      </trkpt>
      <trkpt lat="44.72539" lon="5.18588">
        <ele>467</ele>
        <time>2022-11-17T10:03:29Z</time>
      </trkpt>
      <trkpt lat="44.72548" lon="5.18587">
        <ele>468</ele>
        <time>2022-11-17T10:03:29Z</time>
      </trkpt>
      <trkpt lat="44.72572" lon="5.18572">
        <ele>470</ele>
        <time>2022-11-17T10:03:29Z</time>
      </trkpt>
      <trkpt lat="44.72597" lon="5.1857">
        <ele>473</ele>
        <time>2022-11-17T10:03:29Z</time>
      </trkpt>
      <trkpt lat="44.72606" lon="5.18565">
        <ele>474</ele>
        <time>2022-11-17T10:03:29Z</time>
      </trkpt>
      <trkpt lat="44.72611" lon="5.18554">
        <ele>475</ele>
        <time>2022-11-17T10:03:29Z</time>
      </trkpt>
      <trkpt lat="44.72622" lon="5.18472">
        <ele>481</ele>
        <time>2022-11-17T10:03:29Z</time>
      </trkpt>
      <trkpt lat="44.72642" lon="5.18429">
        <ele>485</ele>
        <time>2022-11-17T10:03:29Z</time>
      </trkpt>
      <trkpt lat="44.72669" lon="5.18392">
        <ele>489</ele>
        <time>2022-11-17T10:03:29Z</time>
      </trkpt>
      <trkpt lat="44.72702" lon="5.18366">
        <ele>493</ele>
        <time>2022-11-17T10:03:29Z</time>
      </trkpt>
      <trkpt lat="44.72736" lon="5.18348">
        <ele>497</ele>
        <time>2022-11-17T10:03:29Z</time>
      </trkpt>
      <trkpt lat="44.72753" lon="5.18309">
        <ele>500</ele>
        <time>2022-11-17T10:03:29Z</time>
      </trkpt>
      <trkpt lat="44.72811" lon="5.1825">
        <ele>507</ele>
        <time>2022-11-17T10:03:29Z</time>
      </trkpt>
      <trkpt lat="44.72823" lon="5.18227">
        <ele>508</ele>
        <time>2022-11-17T10:03:29Z</time>
      </trkpt>
      <trkpt lat="44.72838" lon="5.18214">
        <ele>509</ele>
        <time>2022-11-17T10:03:29Z</time>
      </trkpt>
      <trkpt lat="44.72848" lon="5.18215">
        <ele>510</ele>
        <time>2022-11-17T10:03:29Z</time>
      </trkpt>
      <trkpt lat="44.72857" lon="5.18221">
        <ele>511</ele>
        <time>2022-11-17T10:03:29Z</time>
      </trkpt>
      <trkpt lat="44.72882" lon="5.18261">
        <ele>512</ele>
        <time>2022-11-17T10:03:29Z</time>
      </trkpt>
      <trkpt lat="44.7289" lon="5.18263">
        <ele>511</ele>
        <time>2022-11-17T10:03:29Z</time>
      </trkpt>
      <trkpt lat="44.72899" lon="5.18257">
        <ele>511</ele>
        <time>2022-11-17T10:03:29Z</time>
      </trkpt>
      <trkpt lat="44.72976" lon="5.18155">
        <ele>502</ele>
        <time>2022-11-17T10:03:29Z</time>
      </trkpt>
      <trkpt lat="44.72985" lon="5.18149">
        <ele>502</ele>
        <time>2022-11-17T10:03:29Z</time>
      </trkpt>
      <trkpt lat="44.72993" lon="5.1815">
        <ele>501</ele>
        <time>2022-11-17T10:03:29Z</time>
      </trkpt>
      <trkpt lat="44.73002" lon="5.18159">
        <ele>501</ele>
        <time>2022-11-17T10:03:29Z</time>
      </trkpt>
      <trkpt lat="44.73007" lon="5.18169">
        <ele>501</ele>
        <time>2022-11-17T10:03:29Z</time>
      </trkpt>
      <trkpt lat="44.73023" lon="5.18249">
        <ele>505</ele>
        <time>2022-11-17T10:03:29Z</time>
      </trkpt>
      <trkpt lat="44.73023" lon="5.18286">
        <ele>506</ele>
        <time>2022-11-17T10:03:29Z</time>
      </trkpt>
      <trkpt lat="44.73024" lon="5.18347">
        <ele>508</ele>
        <time>2022-11-17T10:03:29Z</time>
      </trkpt>
      <trkpt lat="44.73021" lon="5.18411">
        <ele>510</ele>
        <time>2022-11-17T10:03:29Z</time>
      </trkpt>
      <trkpt lat="44.73025" lon="5.18439">
        <ele>511</ele>
        <time>2022-11-17T10:03:29Z</time>
      </trkpt>
      <trkpt lat="44.73029" lon="5.18451">
        <ele>511</ele>
        <time>2022-11-17T10:03:29Z</time>
      </trkpt>
      <trkpt lat="44.73038" lon="5.18459">
        <ele>512</ele>
        <time>2022-11-17T10:03:29Z</time>
      </trkpt>
      <trkpt lat="44.73068" lon="5.18469">
        <ele>513</ele>
        <time>2022-11-17T10:03:29Z</time>
      </trkpt>
      <trkpt lat="44.73082" lon="5.18484">
        <ele>514</ele>
        <time>2022-11-17T10:03:29Z</time>
      </trkpt>
      <trkpt lat="44.731" lon="5.18516">
        <ele>515</ele>
        <time>2022-11-17T10:03:29Z</time>
      </trkpt>
      <trkpt lat="44.73109" lon="5.18524">
        <ele>516</ele>
        <time>2022-11-17T10:03:29Z</time>
      </trkpt>
      <trkpt lat="44.73116" lon="5.18525">
        <ele>516</ele>
        <time>2022-11-17T10:03:29Z</time>
      </trkpt>
      <trkpt lat="44.73124" lon="5.18518">
        <ele>516</ele>
        <time>2022-11-17T10:03:29Z</time>
      </trkpt>
      <trkpt lat="44.73129" lon="5.18506">
        <ele>517</ele>
        <time>2022-11-17T10:03:29Z</time>
      </trkpt>
      <trkpt lat="44.73127" lon="5.18429">
        <ele>518</ele>
        <time>2022-11-17T10:03:29Z</time>
      </trkpt>
      <trkpt lat="44.73157" lon="5.18367">
        <ele>519</ele>
        <time>2022-11-17T10:03:29Z</time>
      </trkpt>
      <trkpt lat="44.73165" lon="5.18359">
        <ele>520</ele>
        <time>2022-11-17T10:03:29Z</time>
      </trkpt>
      <trkpt lat="44.73193" lon="5.18349">
        <ele>521</ele>
        <time>2022-11-17T10:03:29Z</time>
      </trkpt>
      <trkpt lat="44.73225" lon="5.18343">
        <ele>523</ele>
        <time>2022-11-17T10:03:29Z</time>
      </trkpt>
      <trkpt lat="44.73232" lon="5.18332">
        <ele>523</ele>
        <time>2022-11-17T10:03:29Z</time>
      </trkpt>
      <trkpt lat="44.73236" lon="5.18318">
        <ele>524</ele>
        <time>2022-11-17T10:03:29Z</time>
      </trkpt>
      <trkpt lat="44.73241" lon="5.18265">
        <ele>525</ele>
        <time>2022-11-17T10:03:29Z</time>
      </trkpt>
      <trkpt lat="44.7324" lon="5.18251">
        <ele>525</ele>
        <time>2022-11-17T10:03:29Z</time>
      </trkpt>
      <trkpt lat="44.73256" lon="5.18135">
        <ele>529</ele>
        <time>2022-11-17T10:03:29Z</time>
      </trkpt>
      <trkpt lat="44.73253" lon="5.18081">
        <ele>531</ele>
        <time>2022-11-17T10:03:29Z</time>
      </trkpt>
      <trkpt lat="44.73259" lon="5.18071">
        <ele>532</ele>
        <time>2022-11-17T10:03:29Z</time>
      </trkpt>
      <trkpt lat="44.73267" lon="5.18064">
        <ele>532</ele>
        <time>2022-11-17T10:03:29Z</time>
      </trkpt>
      <trkpt lat="44.73277" lon="5.18059">
        <ele>533</ele>
        <time>2022-11-17T10:03:29Z</time>
      </trkpt>
      <trkpt lat="44.73283" lon="5.18052">
        <ele>533</ele>
        <time>2022-11-17T10:03:29Z</time>
      </trkpt>
      <trkpt lat="44.73302" lon="5.17991">
        <ele>533</ele>
        <time>2022-11-17T10:03:29Z</time>
      </trkpt>
      <trkpt lat="44.73332" lon="5.17963">
        <ele>535</ele>
        <time>2022-11-17T10:03:29Z</time>
      </trkpt>
      <trkpt lat="44.73342" lon="5.1796">
        <ele>535</ele>
        <time>2022-11-17T10:03:29Z</time>
      </trkpt>
      <trkpt lat="44.73349" lon="5.17966">
        <ele>536</ele>
        <time>2022-11-17T10:03:29Z</time>
      </trkpt>
      <trkpt lat="44.73364" lon="5.18039">
        <ele>539</ele>
        <time>2022-11-17T10:03:29Z</time>
      </trkpt>
      <trkpt lat="44.73369" lon="5.18051">
        <ele>540</ele>
        <time>2022-11-17T10:03:29Z</time>
      </trkpt>
      <trkpt lat="44.73375" lon="5.18058">
        <ele>540</ele>
        <time>2022-11-17T10:03:29Z</time>
      </trkpt>
      <trkpt lat="44.73384" lon="5.18057">
        <ele>540</ele>
        <time>2022-11-17T10:03:29Z</time>
      </trkpt>
      <trkpt lat="44.73408" lon="5.18033">
        <ele>540</ele>
        <time>2022-11-17T10:03:29Z</time>
      </trkpt>
      <trkpt lat="44.73434" lon="5.18025">
        <ele>541</ele>
        <time>2022-11-17T10:03:29Z</time>
      </trkpt>
      <trkpt lat="44.73444" lon="5.18027">
        <ele>541</ele>
        <time>2022-11-17T10:03:29Z</time>
      </trkpt>
      <trkpt lat="44.73452" lon="5.18036">
        <ele>541</ele>
        <time>2022-11-17T10:03:29Z</time>
      </trkpt>
      <trkpt lat="44.73459" lon="5.18061">
        <ele>541</ele>
        <time>2022-11-17T10:03:29Z</time>
      </trkpt>
      <trkpt lat="44.73464" lon="5.18072">
        <ele>542</ele>
        <time>2022-11-17T10:03:29Z</time>
      </trkpt>
      <trkpt lat="44.73474" lon="5.18077">
        <ele>542</ele>
        <time>2022-11-17T10:03:29Z</time>
      </trkpt>
      <trkpt lat="44.73485" lon="5.18073">
        <ele>543</ele>
        <time>2022-11-17T10:03:29Z</time>
      </trkpt>
      <trkpt lat="44.73511" lon="5.1805">
        <ele>544</ele>
        <time>2022-11-17T10:03:29Z</time>
      </trkpt>
      <trkpt lat="44.73612" lon="5.1802">
        <ele>546</ele>
        <time>2022-11-17T10:03:29Z</time>
      </trkpt>
      <trkpt lat="44.73631" lon="5.18023">
        <ele>547</ele>
        <time>2022-11-17T10:03:29Z</time>
      </trkpt>
      <trkpt lat="44.73714" lon="5.1808">
        <ele>553</ele>
        <time>2022-11-17T10:03:29Z</time>
      </trkpt>
      <trkpt lat="44.73699" lon="5.18049">
        <ele>554</ele>
        <time>2022-11-17T10:03:29Z</time>
      </trkpt>
      <trkpt lat="44.73697" lon="5.18039">
        <ele>555</ele>
        <time>2022-11-17T10:03:29Z</time>
      </trkpt>
      <trkpt lat="44.73691" lon="5.18031">
        <ele>555</ele>
        <time>2022-11-17T10:03:29Z</time>
      </trkpt>
      <trkpt lat="44.73683" lon="5.18026">
        <ele>556</ele>
        <time>2022-11-17T10:03:29Z</time>
      </trkpt>
      <trkpt lat="44.73667" lon="5.18001">
        <ele>559</ele>
        <time>2022-11-17T10:03:29Z</time>
      </trkpt>
      <trkpt lat="44.7366" lon="5.17978">
        <ele>561</ele>
        <time>2022-11-17T10:03:29Z</time>
      </trkpt>
      <trkpt lat="44.73653" lon="5.17972">
        <ele>562</ele>
        <time>2022-11-17T10:03:29Z</time>
      </trkpt>
      <trkpt lat="44.73646" lon="5.17969">
        <ele>562</ele>
        <time>2022-11-17T10:03:29Z</time>
      </trkpt>
      <trkpt lat="44.73623" lon="5.17956">
        <ele>565</ele>
        <time>2022-11-17T10:03:29Z</time>
      </trkpt>
      <trkpt lat="44.73546" lon="5.17934">
        <ele>574</ele>
        <time>2022-11-17T10:03:29Z</time>
      </trkpt>
      <trkpt lat="44.7354" lon="5.17927">
        <ele>575</ele>
        <time>2022-11-17T10:03:29Z</time>
      </trkpt>
      <trkpt lat="44.73531" lon="5.17894">
        <ele>576</ele>
        <time>2022-11-17T10:03:29Z</time>
      </trkpt>
      <trkpt lat="44.7351" lon="5.17873">
        <ele>577</ele>
        <time>2022-11-17T10:03:29Z</time>
      </trkpt>
      <trkpt lat="44.73436" lon="5.17835">
        <ele>581</ele>
        <time>2022-11-17T10:03:29Z</time>
      </trkpt>
      <trkpt lat="44.73396" lon="5.17795">
        <ele>583</ele>
        <time>2022-11-17T10:03:29Z</time>
      </trkpt>
      <trkpt lat="44.73389" lon="5.17792">
        <ele>584</ele>
        <time>2022-11-17T10:03:29Z</time>
      </trkpt>
      <trkpt lat="44.73327" lon="5.17801">
        <ele>586</ele>
        <time>2022-11-17T10:03:29Z</time>
      </trkpt>
      <trkpt lat="44.73289" lon="5.17816">
        <ele>588</ele>
        <time>2022-11-17T10:03:29Z</time>
      </trkpt>
      <trkpt lat="44.73256" lon="5.17839">
        <ele>589</ele>
        <time>2022-11-17T10:03:29Z</time>
      </trkpt>
      <trkpt lat="44.73245" lon="5.17837">
        <ele>590</ele>
        <time>2022-11-17T10:03:29Z</time>
      </trkpt>
      <trkpt lat="44.73236" lon="5.1783">
        <ele>591</ele>
        <time>2022-11-17T10:03:29Z</time>
      </trkpt>
      <trkpt lat="44.73174" lon="5.1773">
        <ele>589</ele>
        <time>2022-11-17T10:03:29Z</time>
      </trkpt>
      <trkpt lat="44.7317" lon="5.1772">
        <ele>590</ele>
        <time>2022-11-17T10:03:29Z</time>
      </trkpt>
      <trkpt lat="44.73142" lon="5.17696">
        <ele>592</ele>
        <time>2022-11-17T10:03:29Z</time>
      </trkpt>
      <trkpt lat="44.73125" lon="5.17693">
        <ele>592</ele>
        <time>2022-11-17T10:03:29Z</time>
      </trkpt>
      <trkpt lat="44.73081" lon="5.17694">
        <ele>594</ele>
        <time>2022-11-17T10:03:29Z</time>
      </trkpt>
      <trkpt lat="44.73072" lon="5.17698">
        <ele>594</ele>
        <time>2022-11-17T10:03:29Z</time>
      </trkpt>
      <trkpt lat="44.73015" lon="5.17743">
        <ele>588</ele>
        <time>2022-11-17T10:03:29Z</time>
      </trkpt>
      <trkpt lat="44.73008" lon="5.17743">
        <ele>588</ele>
        <time>2022-11-17T10:03:29Z</time>
      </trkpt>
      <trkpt lat="44.73002" lon="5.17732">
        <ele>587</ele>
        <time>2022-11-17T10:03:29Z</time>
      </trkpt>
      <trkpt lat="44.72998" lon="5.17673">
        <ele>588</ele>
        <time>2022-11-17T10:03:29Z</time>
      </trkpt>
      <trkpt lat="44.72982" lon="5.17627">
        <ele>586</ele>
        <time>2022-11-17T10:03:29Z</time>
      </trkpt>
      <trkpt lat="44.72963" lon="5.17596">
        <ele>583</ele>
        <time>2022-11-17T10:03:29Z</time>
      </trkpt>
      <trkpt lat="44.72949" lon="5.17561">
        <ele>581</ele>
        <time>2022-11-17T10:03:29Z</time>
      </trkpt>
      <trkpt lat="44.72917" lon="5.17521">
        <ele>576</ele>
        <time>2022-11-17T10:03:29Z</time>
      </trkpt>
      <trkpt lat="44.72812" lon="5.17463">
        <ele>573</ele>
        <time>2022-11-17T10:03:29Z</time>
      </trkpt>
      <trkpt lat="44.72789" lon="5.17436">
        <ele>576</ele>
        <time>2022-11-17T10:03:29Z</time>
      </trkpt>
      <trkpt lat="44.72765" lon="5.17383">
        <ele>581</ele>
        <time>2022-11-17T10:03:29Z</time>
      </trkpt>
      <trkpt lat="44.72754" lon="5.17346">
        <ele>583</ele>
        <time>2022-11-17T10:03:29Z</time>
      </trkpt>
      <trkpt lat="44.72742" lon="5.17324">
        <ele>584</ele>
        <time>2022-11-17T10:03:29Z</time>
      </trkpt>
      <trkpt lat="44.72738" lon="5.17312">
        <ele>585</ele>
        <time>2022-11-17T10:03:29Z</time>
      </trkpt>
      <trkpt lat="44.72739" lon="5.17297">
        <ele>586</ele>
        <time>2022-11-17T10:03:29Z</time>
      </trkpt>
      <trkpt lat="44.72752" lon="5.17247">
        <ele>589</ele>
        <time>2022-11-17T10:03:29Z</time>
      </trkpt>
      <trkpt lat="44.72752" lon="5.17235">
        <ele>590</ele>
        <time>2022-11-17T10:03:29Z</time>
      </trkpt>
      <trkpt lat="44.72771" lon="5.17109">
        <ele>597</ele>
        <time>2022-11-17T10:03:29Z</time>
      </trkpt>
      <trkpt lat="44.72769" lon="5.17098">
        <ele>598</ele>
        <time>2022-11-17T10:03:29Z</time>
      </trkpt>
      <trkpt lat="44.72755" lon="5.17066">
        <ele>599</ele>
        <time>2022-11-17T10:03:29Z</time>
      </trkpt>
      <trkpt lat="44.72755" lon="5.17053">
        <ele>599</ele>
        <time>2022-11-17T10:03:29Z</time>
      </trkpt>
      <trkpt lat="44.72763" lon="5.17018">
        <ele>600</ele>
        <time>2022-11-17T10:03:29Z</time>
      </trkpt>
      <trkpt lat="44.72778" lon="5.16985">
        <ele>602</ele>
        <time>2022-11-17T10:03:29Z</time>
      </trkpt>
      <trkpt lat="44.72821" lon="5.16929">
        <ele>607</ele>
        <time>2022-11-17T10:03:29Z</time>
      </trkpt>
      <trkpt lat="44.72846" lon="5.1688">
        <ele>609</ele>
        <time>2022-11-17T10:03:29Z</time>
      </trkpt>
      <trkpt lat="44.72901" lon="5.16758">
        <ele>618</ele>
        <time>2022-11-17T10:03:29Z</time>
      </trkpt>
      <trkpt lat="44.72916" lon="5.16728">
        <ele>620</ele>
        <time>2022-11-17T10:03:29Z</time>
      </trkpt>
      <trkpt lat="44.7293" lon="5.16681">
        <ele>624</ele>
        <time>2022-11-17T10:03:29Z</time>
      </trkpt>
      <trkpt lat="44.72925" lon="5.16674">
        <ele>625</ele>
        <time>2022-11-17T10:03:29Z</time>
      </trkpt>
      <trkpt lat="44.72896" lon="5.16706">
        <ele>628</ele>
        <time>2022-11-17T10:03:29Z</time>
      </trkpt>
      <trkpt lat="44.72884" lon="5.16723">
        <ele>630</ele>
        <time>2022-11-17T10:03:29Z</time>
      </trkpt>
      <trkpt lat="44.72861" lon="5.16765">
        <ele>632</ele>
        <time>2022-11-17T10:03:29Z</time>
      </trkpt>
      <trkpt lat="44.72828" lon="5.16813">
        <ele>635</ele>
        <time>2022-11-17T10:03:29Z</time>
      </trkpt>
      <trkpt lat="44.72818" lon="5.16817">
        <ele>636</ele>
        <time>2022-11-17T10:03:29Z</time>
      </trkpt>
      <trkpt lat="44.7271" lon="5.16937">
        <ele>646</ele>
        <time>2022-11-17T10:03:29Z</time>
      </trkpt>
      <trkpt lat="44.72643" lon="5.16924">
        <ele>643</ele>
        <time>2022-11-17T10:03:30Z</time>
      </trkpt>
      <trkpt lat="44.72592" lon="5.16897">
        <ele>642</ele>
        <time>2022-11-17T10:03:30Z</time>
      </trkpt>
      <trkpt lat="44.72577" lon="5.16882">
        <ele>642</ele>
        <time>2022-11-17T10:03:30Z</time>
      </trkpt>
      <trkpt lat="44.72454" lon="5.16823">
        <ele>643</ele>
        <time>2022-11-17T10:03:30Z</time>
      </trkpt>
      <trkpt lat="44.72447" lon="5.16815">
        <ele>643</ele>
        <time>2022-11-17T10:03:30Z</time>
      </trkpt>
      <trkpt lat="44.72437" lon="5.16809">
        <ele>643</ele>
        <time>2022-11-17T10:03:30Z</time>
      </trkpt>
      <trkpt lat="44.72369" lon="5.16809">
        <ele>649</ele>
        <time>2022-11-17T10:03:30Z</time>
      </trkpt>
      <trkpt lat="44.7236" lon="5.16807">
        <ele>650</ele>
        <time>2022-11-17T10:03:30Z</time>
      </trkpt>
      <trkpt lat="44.72335" lon="5.16816">
        <ele>653</ele>
        <time>2022-11-17T10:03:30Z</time>
      </trkpt>
      <trkpt lat="44.72328" lon="5.16821">
        <ele>654</ele>
        <time>2022-11-17T10:03:30Z</time>
      </trkpt>
      <trkpt lat="44.72313" lon="5.16828">
        <ele>656</ele>
        <time>2022-11-17T10:03:30Z</time>
      </trkpt>
      <trkpt lat="44.72307" lon="5.16835">
        <ele>656</ele>
        <time>2022-11-17T10:03:30Z</time>
      </trkpt>
      <trkpt lat="44.72309" lon="5.16878">
        <ele>653</ele>
        <time>2022-11-17T10:03:30Z</time>
      </trkpt>
      <trkpt lat="44.72312" lon="5.169">
        <ele>651</ele>
        <time>2022-11-17T10:03:30Z</time>
      </trkpt>
      <trkpt lat="44.72305" lon="5.16963">
        <ele>646</ele>
        <time>2022-11-17T10:03:30Z</time>
      </trkpt>
      <trkpt lat="44.72301" lon="5.16972">
        <ele>644</ele>
        <time>2022-11-17T10:03:30Z</time>
      </trkpt>
      <trkpt lat="44.72296" lon="5.16994">
        <ele>641</ele>
        <time>2022-11-17T10:03:30Z</time>
      </trkpt>
      <trkpt lat="44.72284" lon="5.17023">
        <ele>636</ele>
        <time>2022-11-17T10:03:30Z</time>
      </trkpt>
      <trkpt lat="44.72283" lon="5.17034">
        <ele>635</ele>
        <time>2022-11-17T10:03:30Z</time>
      </trkpt>
      <trkpt lat="44.72281" lon="5.17046">
        <ele>633</ele>
        <time>2022-11-17T10:03:30Z</time>
      </trkpt>
      <trkpt lat="44.72276" lon="5.17056">
        <ele>630</ele>
        <time>2022-11-17T10:03:30Z</time>
      </trkpt>
      <trkpt lat="44.72266" lon="5.17098">
        <ele>625</ele>
        <time>2022-11-17T10:03:30Z</time>
      </trkpt>
      <trkpt lat="44.72265" lon="5.17109">
        <ele>623</ele>
        <time>2022-11-17T10:03:30Z</time>
      </trkpt>
      <trkpt lat="44.7226" lon="5.1713">
        <ele>620</ele>
        <time>2022-11-17T10:03:30Z</time>
      </trkpt>
      <trkpt lat="44.72258" lon="5.17152">
        <ele>617</ele>
        <time>2022-11-17T10:03:30Z</time>
      </trkpt>
      <trkpt lat="44.72249" lon="5.172">
        <ele>610</ele>
        <time>2022-11-17T10:03:30Z</time>
      </trkpt>
      <trkpt lat="44.72248" lon="5.17234">
        <ele>605</ele>
        <time>2022-11-17T10:03:30Z</time>
      </trkpt>
      <trkpt lat="44.72244" lon="5.17243">
        <ele>604</ele>
        <time>2022-11-17T10:03:30Z</time>
      </trkpt>
      <trkpt lat="44.72236" lon="5.17246">
        <ele>602</ele>
        <time>2022-11-17T10:03:30Z</time>
      </trkpt>
      <trkpt lat="44.72222" lon="5.17234">
        <ele>599</ele>
        <time>2022-11-17T10:03:30Z</time>
      </trkpt>
      <trkpt lat="44.72193" lon="5.17232">
        <ele>596</ele>
        <time>2022-11-17T10:03:30Z</time>
      </trkpt>
      <trkpt lat="44.72131" lon="5.17269">
        <ele>600</ele>
        <time>2022-11-17T10:03:30Z</time>
      </trkpt>
      <trkpt lat="44.72108" lon="5.17283">
        <ele>603</ele>
        <time>2022-11-17T10:03:30Z</time>
      </trkpt>
      <trkpt lat="44.72101" lon="5.17292">
        <ele>604</ele>
        <time>2022-11-17T10:03:30Z</time>
      </trkpt>
      <trkpt lat="44.7208" lon="5.1731">
        <ele>606</ele>
        <time>2022-11-17T10:03:30Z</time>
      </trkpt>
      <trkpt lat="44.72047" lon="5.17316">
        <ele>610</ele>
        <time>2022-11-17T10:03:30Z</time>
      </trkpt>
      <trkpt lat="44.7204" lon="5.17313">
        <ele>611</ele>
        <time>2022-11-17T10:03:30Z</time>
      </trkpt>
      <trkpt lat="44.71998" lon="5.17312">
        <ele>616</ele>
        <time>2022-11-17T10:03:30Z</time>
      </trkpt>
      <trkpt lat="44.71952" lon="5.17298">
        <ele>623</ele>
        <time>2022-11-17T10:03:30Z</time>
      </trkpt>
      <trkpt lat="44.71928" lon="5.17297">
        <ele>624</ele>
        <time>2022-11-17T10:03:30Z</time>
      </trkpt>
      <trkpt lat="44.7192" lon="5.17295">
        <ele>625</ele>
        <time>2022-11-17T10:03:30Z</time>
      </trkpt>
      <trkpt lat="44.71681" lon="5.1731">
        <ele>630</ele>
        <time>2022-11-17T10:03:30Z</time>
      </trkpt>
      <trkpt lat="44.71642" lon="5.17317">
        <ele>635</ele>
        <time>2022-11-17T10:03:30Z</time>
      </trkpt>
      <trkpt lat="44.71561" lon="5.1731">
        <ele>639</ele>
        <time>2022-11-17T10:03:30Z</time>
      </trkpt>
      <trkpt lat="44.7145" lon="5.17336">
        <ele>636</ele>
        <time>2022-11-17T10:03:30Z</time>
      </trkpt>
      <trkpt lat="44.71423" lon="5.17329">
        <ele>636</ele>
        <time>2022-11-17T10:03:30Z</time>
      </trkpt>
      <trkpt lat="44.71273" lon="5.17344">
        <ele>633</ele>
        <time>2022-11-17T10:03:30Z</time>
      </trkpt>
      <trkpt lat="44.71186" lon="5.17321">
        <ele>637</ele>
        <time>2022-11-17T10:03:30Z</time>
      </trkpt>
      <trkpt lat="44.7117" lon="5.17325">
        <ele>637</ele>
        <time>2022-11-17T10:03:30Z</time>
      </trkpt>
      <trkpt lat="44.71164" lon="5.17321">
        <ele>637</ele>
        <time>2022-11-17T10:03:30Z</time>
      </trkpt>
      <trkpt lat="44.71159" lon="5.17299">
        <ele>635</ele>
        <time>2022-11-17T10:03:30Z</time>
      </trkpt>
      <trkpt lat="44.7115" lon="5.17278">
        <ele>632</ele>
        <time>2022-11-17T10:03:30Z</time>
      </trkpt>
      <trkpt lat="44.71145" lon="5.1724">
        <ele>627</ele>
        <time>2022-11-17T10:03:30Z</time>
      </trkpt>
      <trkpt lat="44.71146" lon="5.1723">
        <ele>626</ele>
        <time>2022-11-17T10:03:30Z</time>
      </trkpt>
      <trkpt lat="44.71143" lon="5.17221">
        <ele>624</ele>
        <time>2022-11-17T10:03:30Z</time>
      </trkpt>
      <trkpt lat="44.71126" lon="5.17192">
        <ele>619</ele>
        <time>2022-11-17T10:03:30Z</time>
      </trkpt>
      <trkpt lat="44.71124" lon="5.17182">
        <ele>618</ele>
        <time>2022-11-17T10:03:30Z</time>
      </trkpt>
      <trkpt lat="44.71121" lon="5.17145">
        <ele>613</ele>
        <time>2022-11-17T10:03:30Z</time>
      </trkpt>
      <trkpt lat="44.71108" lon="5.17135">
        <ele>610</ele>
        <time>2022-11-17T10:03:30Z</time>
      </trkpt>
      <trkpt lat="44.71097" lon="5.1712">
        <ele>607</ele>
        <time>2022-11-17T10:03:30Z</time>
      </trkpt>
      <trkpt lat="44.71092" lon="5.17112">
        <ele>605</ele>
        <time>2022-11-17T10:03:30Z</time>
      </trkpt>
      <trkpt lat="44.71091" lon="5.171">
        <ele>603</ele>
        <time>2022-11-17T10:03:30Z</time>
      </trkpt>
      <trkpt lat="44.71083" lon="5.17092">
        <ele>600</ele>
        <time>2022-11-17T10:03:30Z</time>
      </trkpt>
      <trkpt lat="44.71075" lon="5.17091">
        <ele>598</ele>
        <time>2022-11-17T10:03:30Z</time>
      </trkpt>
      <trkpt lat="44.71048" lon="5.17069">
        <ele>592</ele>
        <time>2022-11-17T10:03:30Z</time>
      </trkpt>
      <trkpt lat="44.71031" lon="5.17062">
        <ele>589</ele>
        <time>2022-11-17T10:03:30Z</time>
      </trkpt>
      <trkpt lat="44.71025" lon="5.17054">
        <ele>587</ele>
        <time>2022-11-17T10:03:30Z</time>
      </trkpt>
      <trkpt lat="44.71017" lon="5.17051">
        <ele>586</ele>
        <time>2022-11-17T10:03:30Z</time>
      </trkpt>
      <trkpt lat="44.71012" lon="5.17044">
        <ele>585</ele>
        <time>2022-11-17T10:03:30Z</time>
      </trkpt>
      <trkpt lat="44.70999" lon="5.17034">
        <ele>584</ele>
        <time>2022-11-17T10:03:30Z</time>
      </trkpt>
      <trkpt lat="44.70993" lon="5.17023">
        <ele>583</ele>
        <time>2022-11-17T10:03:30Z</time>
      </trkpt>
      <trkpt lat="44.70983" lon="5.16981">
        <ele>582</ele>
        <time>2022-11-17T10:03:30Z</time>
      </trkpt>
      <trkpt lat="44.70975" lon="5.16985">
        <ele>582</ele>
        <time>2022-11-17T10:03:30Z</time>
      </trkpt>
      <trkpt lat="44.70966" lon="5.16983">
        <ele>582</ele>
        <time>2022-11-17T10:03:30Z</time>
      </trkpt>
      <trkpt lat="44.70943" lon="5.16979">
        <ele>579</ele>
        <time>2022-11-17T10:03:30Z</time>
      </trkpt>
      <trkpt lat="44.70938" lon="5.16986">
        <ele>578</ele>
        <time>2022-11-17T10:03:30Z</time>
      </trkpt>
      <trkpt lat="44.70939" lon="5.16997">
        <ele>577</ele>
        <time>2022-11-17T10:03:30Z</time>
      </trkpt>
      <trkpt lat="44.70945" lon="5.17008">
        <ele>576</ele>
        <time>2022-11-17T10:03:30Z</time>
      </trkpt>
      <trkpt lat="44.70995" lon="5.17087">
        <ele>568</ele>
        <time>2022-11-17T10:03:30Z</time>
      </trkpt>
      <trkpt lat="44.71003" lon="5.17108">
        <ele>565</ele>
        <time>2022-11-17T10:03:30Z</time>
      </trkpt>
      <trkpt lat="44.7101" lon="5.1714">
        <ele>561</ele>
        <time>2022-11-17T10:03:30Z</time>
      </trkpt>
      <trkpt lat="44.71009" lon="5.17162">
        <ele>559</ele>
        <time>2022-11-17T10:03:30Z</time>
      </trkpt>
      <trkpt lat="44.71003" lon="5.17171">
        <ele>557</ele>
        <time>2022-11-17T10:03:30Z</time>
      </trkpt>
      <trkpt lat="44.70954" lon="5.17209">
        <ele>549</ele>
        <time>2022-11-17T10:03:30Z</time>
      </trkpt>
      <trkpt lat="44.70889" lon="5.17293">
        <ele>542</ele>
        <time>2022-11-17T10:03:30Z</time>
      </trkpt>
      <trkpt lat="44.70885" lon="5.17302">
        <ele>541</ele>
        <time>2022-11-17T10:03:30Z</time>
      </trkpt>
      <trkpt lat="44.70867" lon="5.17328">
        <ele>539</ele>
        <time>2022-11-17T10:03:30Z</time>
      </trkpt>
      <trkpt lat="44.70841" lon="5.17379">
        <ele>533</ele>
        <time>2022-11-17T10:03:30Z</time>
      </trkpt>
      <trkpt lat="44.70835" lon="5.17387">
        <ele>532</ele>
        <time>2022-11-17T10:03:30Z</time>
      </trkpt>
      <trkpt lat="44.70757" lon="5.17534">
        <ele>518</ele>
        <time>2022-11-17T10:03:30Z</time>
      </trkpt>
      <trkpt lat="44.70755" lon="5.17544">
        <ele>517</ele>
        <time>2022-11-17T10:03:30Z</time>
      </trkpt>
      <trkpt lat="44.7076" lon="5.17553">
        <ele>516</ele>
        <time>2022-11-17T10:03:30Z</time>
      </trkpt>
      <trkpt lat="44.70765" lon="5.17561">
        <ele>514</ele>
        <time>2022-11-17T10:03:30Z</time>
      </trkpt>
      <trkpt lat="44.7078" lon="5.1757">
        <ele>512</ele>
        <time>2022-11-17T10:03:30Z</time>
      </trkpt>
      <trkpt lat="44.7092" lon="5.17632">
        <ele>490</ele>
        <time>2022-11-17T10:03:30Z</time>
      </trkpt>
      <trkpt lat="44.70927" lon="5.17638">
        <ele>489</ele>
        <time>2022-11-17T10:03:30Z</time>
      </trkpt>
      <trkpt lat="44.70935" lon="5.17642">
        <ele>488</ele>
        <time>2022-11-17T10:03:30Z</time>
      </trkpt>
      <trkpt lat="44.7095" lon="5.17642">
        <ele>487</ele>
        <time>2022-11-17T10:03:30Z</time>
      </trkpt>
      <trkpt lat="44.70958" lon="5.17652">
        <ele>486</ele>
        <time>2022-11-17T10:03:30Z</time>
      </trkpt>
      <trkpt lat="44.70967" lon="5.17653">
        <ele>486</ele>
        <time>2022-11-17T10:03:30Z</time>
      </trkpt>
      <trkpt lat="44.70978" lon="5.17666">
        <ele>484</ele>
        <time>2022-11-17T10:03:30Z</time>
      </trkpt>
      <trkpt lat="44.70985" lon="5.1767">
        <ele>483</ele>
        <time>2022-11-17T10:03:30Z</time>
      </trkpt>
      <trkpt lat="44.70991" lon="5.17677">
        <ele>481</ele>
        <time>2022-11-17T10:03:30Z</time>
      </trkpt>
      <trkpt lat="44.70993" lon="5.1769">
        <ele>479</ele>
        <time>2022-11-17T10:03:30Z</time>
      </trkpt>
      <trkpt lat="44.70999" lon="5.17699">
        <ele>478</ele>
        <time>2022-11-17T10:03:30Z</time>
      </trkpt>
      <trkpt lat="44.71006" lon="5.17705">
        <ele>476</ele>
        <time>2022-11-17T10:03:30Z</time>
      </trkpt>
      <trkpt lat="44.71015" lon="5.17704">
        <ele>474</ele>
        <time>2022-11-17T10:03:30Z</time>
      </trkpt>
      <trkpt lat="44.71018" lon="5.17714">
        <ele>471</ele>
        <time>2022-11-17T10:03:30Z</time>
      </trkpt>
      <trkpt lat="44.70994" lon="5.17754">
        <ele>466</ele>
        <time>2022-11-17T10:03:30Z</time>
      </trkpt>
      <trkpt lat="44.70968" lon="5.17821">
        <ele>462</ele>
        <time>2022-11-17T10:03:30Z</time>
      </trkpt>
      <trkpt lat="44.70961" lon="5.17832">
        <ele>461</ele>
        <time>2022-11-17T10:03:30Z</time>
      </trkpt>
      <trkpt lat="44.70938" lon="5.17853">
        <ele>458</ele>
        <time>2022-11-17T10:03:30Z</time>
      </trkpt>
      <trkpt lat="44.70927" lon="5.1787">
        <ele>456</ele>
        <time>2022-11-17T10:03:30Z</time>
      </trkpt>
      <trkpt lat="44.7089" lon="5.17908">
        <ele>450</ele>
        <time>2022-11-17T10:03:30Z</time>
      </trkpt>
      <trkpt lat="44.70857" lon="5.17963">
        <ele>445</ele>
        <time>2022-11-17T10:03:30Z</time>
      </trkpt>
      <trkpt lat="44.70819" lon="5.17988">
        <ele>437</ele>
        <time>2022-11-17T10:03:30Z</time>
      </trkpt>
      <trkpt lat="44.70814" lon="5.17997">
        <ele>436</ele>
        <time>2022-11-17T10:03:30Z</time>
      </trkpt>
      <trkpt lat="44.70814" lon="5.18008">
        <ele>434</ele>
        <time>2022-11-17T10:03:30Z</time>
      </trkpt>
      <trkpt lat="44.70818" lon="5.18018">
        <ele>433</ele>
        <time>2022-11-17T10:03:30Z</time>
      </trkpt>
      <trkpt lat="44.70812" lon="5.18026">
        <ele>431</ele>
        <time>2022-11-17T10:03:30Z</time>
      </trkpt>
      <trkpt lat="44.70803" lon="5.18026">
        <ele>429</ele>
        <time>2022-11-17T10:03:30Z</time>
      </trkpt>
      <trkpt lat="44.7077" lon="5.18016">
        <ele>423</ele>
        <time>2022-11-17T10:03:30Z</time>
      </trkpt>
      <trkpt lat="44.70763" lon="5.18018">
        <ele>421</ele>
        <time>2022-11-17T10:03:30Z</time>
      </trkpt>
      <trkpt lat="44.70662" lon="5.18111">
        <ele>405</ele>
        <time>2022-11-17T10:03:30Z</time>
      </trkpt>
      <trkpt lat="44.70629" lon="5.18124">
        <ele>403</ele>
        <time>2022-11-17T10:03:30Z</time>
      </trkpt>
      <trkpt lat="44.70607" lon="5.18144">
        <ele>401</ele>
        <time>2022-11-17T10:03:30Z</time>
      </trkpt>
      <trkpt lat="44.70556" lon="5.18231">
        <ele>392</ele>
        <time>2022-11-17T10:03:30Z</time>
      </trkpt>
      <trkpt lat="44.70553" lon="5.18241">
        <ele>391</ele>
        <time>2022-11-17T10:03:30Z</time>
      </trkpt>
      <trkpt lat="44.70507" lon="5.18343">
        <ele>378</ele>
        <time>2022-11-17T10:03:30Z</time>
      </trkpt>
      <trkpt lat="44.70479" lon="5.18389">
        <ele>371</ele>
        <time>2022-11-17T10:03:30Z</time>
      </trkpt>
      <trkpt lat="44.70473" lon="5.18394">
        <ele>370</ele>
        <time>2022-11-17T10:03:30Z</time>
      </trkpt>
      <trkpt lat="44.70466" lon="5.18404">
        <ele>368</ele>
        <time>2022-11-17T10:03:30Z</time>
      </trkpt>
      <trkpt lat="44.70449" lon="5.18417">
        <ele>366</ele>
        <time>2022-11-17T10:03:30Z</time>
      </trkpt>
      <trkpt lat="44.70432" lon="5.18425">
        <ele>364</ele>
        <time>2022-11-17T10:03:30Z</time>
      </trkpt>
      <trkpt lat="44.70369" lon="5.18496">
        <ele>355</ele>
        <time>2022-11-17T10:03:30Z</time>
      </trkpt>
      <trkpt lat="44.70353" lon="5.18523">
        <ele>351</ele>
        <time>2022-11-17T10:03:30Z</time>
      </trkpt>
      <trkpt lat="44.70312" lon="5.18564">
        <ele>344</ele>
        <time>2022-11-17T10:03:30Z</time>
      </trkpt>
      <trkpt lat="44.70233" lon="5.18607">
        <ele>337</ele>
        <time>2022-11-17T10:03:30Z</time>
      </trkpt>
      <trkpt lat="44.7023" lon="5.18616">
        <ele>336</ele>
        <time>2022-11-17T10:03:30Z</time>
      </trkpt>
      <trkpt lat="44.7022" lon="5.18625">
        <ele>335</ele>
        <time>2022-11-17T10:03:30Z</time>
      </trkpt>
      <trkpt lat="44.70168" lon="5.18639">
        <ele>332</ele>
        <time>2022-11-17T10:03:30Z</time>
      </trkpt>
      <trkpt lat="44.70134" lon="5.18624">
        <ele>330</ele>
        <time>2022-11-17T10:03:30Z</time>
      </trkpt>
      <trkpt lat="44.70057" lon="5.18572">
        <ele>321</ele>
        <time>2022-11-17T10:03:30Z</time>
      </trkpt>
      <trkpt lat="44.70033" lon="5.18566">
        <ele>317</ele>
        <time>2022-11-17T10:03:30Z</time>
      </trkpt>
      <trkpt lat="44.69945" lon="5.18556">
        <ele>303</ele>
        <time>2022-11-17T10:03:30Z</time>
      </trkpt>
      <trkpt lat="44.69912" lon="5.18571">
        <ele>297</ele>
        <time>2022-11-17T10:03:30Z</time>
      </trkpt>
      <trkpt lat="44.6986" lon="5.18604">
        <ele>288</ele>
        <time>2022-11-17T10:03:30Z</time>
      </trkpt>
      <trkpt lat="44.69801" lon="5.18616">
        <ele>282</ele>
        <time>2022-11-17T10:03:30Z</time>
      </trkpt>
      <trkpt lat="44.69773" lon="5.18613">
        <ele>282</ele>
        <time>2022-11-17T10:03:30Z</time>
      </trkpt>
      <trkpt lat="44.69765" lon="5.18618">
        <ele>281</ele>
        <time>2022-11-17T10:03:30Z</time>
      </trkpt>
      <trkpt lat="44.69729" lon="5.18666">
        <ele>278</ele>
        <time>2022-11-17T10:03:30Z</time>
      </trkpt>
      <trkpt lat="44.69704" lon="5.18736">
        <ele>278</ele>
        <time>2022-11-17T10:03:30Z</time>
      </trkpt>
      <trkpt lat="44.69682" lon="5.18851">
        <ele>277</ele>
        <time>2022-11-17T10:03:30Z</time>
      </trkpt>
      <trkpt lat="44.69677" lon="5.18899">
        <ele>275</ele>
        <time>2022-11-17T10:03:30Z</time>
      </trkpt>
      <trkpt lat="44.69705" lon="5.19225">
        <ele>269</ele>
        <time>2022-11-17T10:03:30Z</time>
      </trkpt>
      <trkpt lat="44.69685" lon="5.19385">
        <ele>265</ele>
        <time>2022-11-17T10:03:30Z</time>
      </trkpt>
      <trkpt lat="44.69674" lon="5.19438">
        <ele>265</ele>
        <time>2022-11-17T10:03:30Z</time>
      </trkpt>
      <trkpt lat="44.69671" lon="5.19499">
        <ele>264</ele>
        <time>2022-11-17T10:03:30Z</time>
      </trkpt>
      <trkpt lat="44.69656" lon="5.1965">
        <ele>266</ele>
        <time>2022-11-17T10:03:31Z</time>
      </trkpt>
      <trkpt lat="44.6966" lon="5.19675">
        <ele>266</ele>
        <time>2022-11-17T10:03:31Z</time>
        <extensions>
          <visugpx:TrkExtension xmlns:visugpx="https://www.visugpx.com/editgpx/">
            <visugpx:node>1</visugpx:node>
            </visugpx:TrkExtension>
        </extensions>
      </trkpt>
    </trkseg>
  </trk>
</gpx>